{"data":{"norad_id":56902,"intl_designator":"2023-083AC","name":"STARLINK-6195","alt_names":[],"object_type":"PAYLOAD","status":"ACTIVE","operator":null,"country":"US","launch_date":"2023-06-12","launch_site_code":"AFETR","launch_vehicle":null,"mission":null,"orbit_class":"UNKNOWN","rcs_meters":null,"size_class":null,"mass_kg":null,"dimensions":null,"purposes":["comms"],"wikipedia_slug":null,"has_3d_model":false,"image_url":null,"decayed_at":null,"tle_current":{"epoch":"2026-09-20T09:48:43.515072Z","epoch_age_seconds":125429,"freshness":"FRESH","line1":"1 56902U 23083AC  26263.40883698 -.00000371  00000+0 -39492-5 0  9997","line2":"2 56902  43.0047  51.3789 0001863 270.8334  89.2305 15.27574576181680","mean_motion":15.27574576,"eccentricity":0.0001863,"inclination_deg":43.0047,"raan_deg":51.3789,"arg_perigee_deg":270.8334,"mean_anomaly_deg":89.2305,"bstar":-3.9492e-6,"rev_number":18168,"period_min":94.267083429124,"perigee_km":481.78709549951,"apogee_km":484.34357949046,"semimajor_km":6861.202337495,"source":"CELESTRAK","updated_at":"2026-09-21T09:00:33.524940Z"}}}